Hourly Weather Roundup
Issued by NWS Central Illinois

Home | Current Version | Previous Version | Text Only | Print | Product List | Glossary On
Versions: 1 2 3 4 5 6 7 8 9 10 11 12 13 14 15 16 17 18 19 20 21 22 23 24 25 26 27 28 29 30 31 32 33 34 35 36 37 38 39 40 41 42 43 44 45 46 47 48 49 50
000
NZUS43 KILX 242210
HWRILX

AREA WEATHER ROUNDUP
NATIONAL WEATHER SERVICE, LINCOLN IL
500 PM CDT TUE MAY 24 2016


CITY           SKY/WX    TMP DP  RH WIND       PRES   REMARKS
BLOOMINGTON    MOSUNNY   85  61  44 S15       29.97F HX  85
CHAMPAIGN      SUNNY     85  54  34 S22G30    29.98F HX  83
DANVILLE       MOSUNNY   84  54  34 S17       29.97F HX  83
DECATUR        MOSUNNY   82  59  45 S14G25    29.98S HX  82
EFFINGHAM      SUNNY     82  62  50 S10       30.02F HX  82
FLORA          CLOUDY    80  60  50 S13       30.02F HX  81
GALESBURG      CLOUDY    83  60  44 S15       29.91F HX  83
JACKSONVILLE   CLOUDY    82  62  50 SW8       29.93F HX  83
LACON          SUNNY     85  57  37 SW10G16   29.91F HX  84
LAWRENCEVILLE  CLOUDY    81  58  45 S15       30.04S HX  81
LITCHFIELD     PTSUNNY   80  62  52 S15       29.97F HX  81
$$


CITY           SKY/WX    TMP DP  RH WIND       PRES   REMARKS
LINCOLN        MOSUNNY   84  61  45 S7G16     29.94F HX  85
MACOMB         CLOUDY    84  60  44 S12G17    29.94F HX  84
MATTOON        SUNNY     80  56  43 S14G23    30.00F HX  80
MT CARMEL AP   CLOUDY    82  54  38 S13       30.04S HX  81
OLNEY-NOBLE AP MOSUNNY   81  55  41 S16       30.03F HX  80
PARIS          MOSUNNY   83  57  39 S13       30.02F HX  83
PEORIA         PTSUNNY   84  60  44 S13       29.92F HX  84
PONTIAC        SUNNY     87  56  34 S15G21    29.95F HX  86
RANTOUL        MOSUNNY   87  55  33 S14G23    29.98F HX  85
ROBINSON       MOSUNNY   80  58  47 SW16      30.04S HX  80
SPRINGFIELD    PTSUNNY   83  60  45 S10       29.94F HX  83
TAYLORVILLE    PTSUNNY   82  62  50 S12       29.97F HX  83
$$

...REGIONAL REPORTS...


CITY           SKY/WX    TMP DP  RH WIND       PRES   REMARKS
CHICAGO O`HARE PTSUNNY   86  48  26 S20G25    29.92F HX  83
KANKAKEE       SUNNY    N/A N/A N/A S14G22    29.96S
MOLINE         MOSUNNY   87  58  37 S7        29.89F HX  86
MOUNT STERLING CLOUDY    78  65  64 SW10      29.93S HX  80
MOUNT VERNON   MOSUNNY   82  64  54 S10       30.03S HX  84
PITTSFIELD     PTSUNNY   79  66  64 SW8       29.95R HX  81
QUINCY         CLOUDY    78  62  57 S9        29.93F HX  80
ROCKFORD       PTSUNNY   85  55  35 W9        29.93S HX  83
$$


CITY           SKY/WX    TMP DP  RH WIND       PRES   REMARKS
BURLINGTON     MOSUNNY   81  66  60 S8        29.90F HX  83
CEDAR RAPIDS   MOSUNNY   84  65  52 S9        29.90S HX  86
DES MOINES     PTSUNNY   83  60  45 SW7       29.89F HX  83
KIRKSVILLE     CLOUDY    75  64  68 S7        29.93F
OTTUMWA        CLOUDY    82  63  52 S8        29.89F HX  83
ST LOUIS       CLOUDY    78  64  61 S15G24    29.98F HX  80
$$


CITY           SKY/WX    TMP DP  RH WIND       PRES   REMARKS
TERRE HAUTE    MOSUNNY   82  55  39 S15       30.03S HX  81
EVANSVILLE     CLOUDY    77  57  50 SW10      30.06S
INDIANAPOLIS   MOSUNNY   81  54  39 SW14      30.02S HX  81
LAFAYETTE      SUNNY     83  49  30 S10G20    29.99S HX  81
MADISON        PTSUNNY   81  59  47 VRB5      29.92S HX  81
MILWAUKEE      CLOUDY    84  55  36 SW14      29.92R HX  83
$$






USA.gov is the U.S. government's official web portal to all federal, state and local government web resources and services.